Flag for Germany Weather past 2 weeks in Melsungen, Hesse, Germany

Now
52 °F

Fog.


Feels Like: 52 °F
Forecast: 55 / 74 °F
Wind: 2 mph from Northwest

Location: Fritzlar

Current Time: Sep 3, 2014 at 5:13:59 AM

Latest Report: Sep 3, 2014 at 4:00 AM


Visibility: 0 mi

Pressure: 30.24 "Hg

Humidity: 97%

Dew point: 51 °F

Location of MelsungenLocation

Historic Weather in Melsungen — Graph

°F

Melsungen temperature yesterday

Maximum temperature yesterday: 64 °F (at 4:00 PM)
Minimum temperature yesterday: 55 °F (at 6:00 AM)
Average temperature yesterday: 59 °F

Past Weeks' High & Low Weather Summary

 TemperatureHumidityPressure
High72 °F (Aug 28, 5:00 PM)98% (Aug 25, 8:00 AM)30.25 "Hg (Aug 25, 8:00 AM)
Low42 °F (Aug 28, 5:00 AM)42% (Aug 20, 5:00 PM)29.69 "Hg (Aug 26, 7:00 AM)
Average57 °F80%29.99 "Hg
* Reported Aug 19 4:00 AM — Sep 3 4:00 AM, Melsungen, Weather by CustomWeather, © 2014

Note: Actual official high and low records may vary slightly from our data, if they occured in-between our weather recording intervals... More about our weather records

Advertising

Melsungen weather history for previous 24 hours

 ConditionsComfort  
Time TempWeatherWind HumidityBarometerVisibility
4:00 AM
Sep 3
52 °FFog.2 mph97%30.24 "Hg1 mi
3:00 AM53 °FFog.3 mph97%30.25 "Hg2 mi
2:00 AM54 °FPassing clouds.1 mph95%30.25 "Hg9 mi
1:00 AM56 °FOvercast.1 mph94%30.24 "Hg9 mi
12:00 AM55 °FPassing clouds.1 mph95%30.25 "Hg9 mi
11:00 PM
Sep 2
58 °FPassing clouds.1 mph90%30.24 "Hg9 mi
10:00 PM60 °FOvercast.2 mph89%30.23 "Hg7 mi
9:00 PM60 °FOvercast.2 mph88%30.22 "Hg7 mi
8:00 PM61 °FSprinkles. Low clouds.2 mph91%30.20 "Hg2 mi
7:00 PM62 °FOvercast.2 mph92%30.18 "Hg8 mi
6:00 PM61 °FSprinkles. Overcast.5 mph91%30.18 "Hg2 mi
5:00 PM62 °FSprinkles. Overcast.3 mph83%30.17 "Hg7 mi
4:00 PM64 °FLight rain. Overcast.3 mph77%30.17 "Hg11 mi
3:00 PM63 °FOvercast.3 mph80%30.17 "Hg11 mi
2:00 PM62 °FOvercast.3 mph77%30.17 "Hg11 mi
1:00 PM61 °FOvercast.3 mph79%30.17 "Hg11 mi
12:00 PM60 °FDrizzle. Overcast.1 mph89%30.17 "Hg6 mi
11:00 AM59 °FLight rain. Overcast.1 mph86%30.16 "Hg3 mi
10:00 AM58 °FOvercast.2 mph87%30.16 "Hg7 mi
9:00 AM56 °FFog.1 mph95%30.16 "Hg4 mi
8:00 AM55 °FFog.3 mph97%30.15 "Hg4 mi
7:00 AM55 °FFog.1 mph97%30.14 "Hg3 mi
6:00 AM55 °FOvercast.1 mph97%30.14 "Hg3 mi
5:00 AM56 °FLight rain. Overcast.2 mph95%30.14 "Hg3 mi
Weather by CustomWeather, © 2014

See weather overviewHow to use our weather pages